Location: Caicarita
(10.0502°N, 67.6875°W)
Time: 21:07:11
(UTC+00:00)

Cosmos 2082 Rocket - Pass Details

Date: 05 August 2024
Orbit: 834 x 852 km, 71.0° (Epoch: 07 September)

Event Time Altitude Azimuth Distance (km) Brightness Sun altitude
Rises 23:11:13 0° 12° (NNE) 3,372 5.4 -5.3°
Reaches altitude 10° 23:14:37 10° 33° (NNE) 2,442 4.5 -6.1°
Maximum altitude 23:18:00 16° 71° (ENE) 2,037 3.7 -6.8°
Drops below altitude 10° 23:21:23 10° 108° (ESE) 2,449 3.9 -7.6°
Enters shadow 23:21:44 - 111° (ESE) 2,529 4.0 -7.7°
